Tracking 19909 objects as of 21-Oct-2019
HD Live streaming from Space Station
objects crossing your sky now

SL-8 DEB

Track SL-8 DEB now!
10-day predictions


NORAD ID: 21179
Int'l Code: 1991-009AS
Perigee: 1,518.5 km
Apogee: 1,714.2 km
Inclination: 74.0 °
Period: 118.4 minutes
Semi major axis: 7987 km
RCS: 0.1608 m2 (medium)
Launch date: February 12, 1991
Source: Commonwealth of Independent States (former USSR) (CIS)
Launch site: PLESETSK MISSILE AND SPACE COMPLEX (PKMTR)

Note: This is SATELLITE DEBRIS
aabbcc
Your satellite tracking list
Your tracking list is empty




NASA's NSSDC Master Catalog

Two Line Element Set (TLE):
1 21179U 91009AS  19294.31662103  .00000028  00000-0  42528-3 0  9990
2 21179  73.9928  54.4870 0122474 310.2868  75.4453 12.16178616273904
Source of the keplerian elements: AFSPC